Voltar ao catálogo

STARLINK-1569

AtivoComunicaçõesVLEO
NORAD 46039·PAYLOAD·🇺🇸 United States

Lançado Aug 7, 2020 de Cape Canaveral Space Force Station

Loading…

Próximas Passagens (próximas 24 horas)

TLE

AtualizadoSource: CelesTrak SupGP

Época: Sep 14, 2026, 20:57 UTC

1 46039C 20055N   26257.87340278 -.00032818  00000+0 -10552-2 0  2570
2 46039  53.1581 326.9991 0001146  82.5557 207.4246 15.31722064    17

Acompanhe STARLINK-1569 em tempo real com AllMySat

Download on the App Store